{"data":{"norad_id":67645,"epoch":"2026-09-19T22:18:36.301248Z","epoch_age_seconds":118404,"freshness":"FRESH","line1":"1 67645U 26020AE  26262.92958682  .00010205  00000+0  37983-3 0  9995","line2":"2 67645  43.0070 122.4984 0000861 258.7474 101.3281 15.27583390 35823","mean_motion":15.2758339,"eccentricity":8.61e-5,"inclination_deg":43.007,"raan_deg":122.4984,"arg_perigee_deg":258.7474,"mean_anomaly_deg":101.3281,"bstar":0.00037983,"rev_number":3582,"period_min":94.266539517689,"perigee_km":482.44819793,"apogee_km":483.62969242776,"semimajor_km":6861.1759451789,"source":"CELESTRAK","updated_at":"2026-09-20T09:00:43.617347Z"}}